COSMOS 1275 DEB

Satellite information

Favourite Embed

Satellite Type and Status

DEBRISIN ORBIT

Key statistics

Satellite COSMOS 1275 DEB at a glance.

Uptime

16043

Days in orbit

Revolutions

≈ 14.1

Per day

Orbit

LEO

Low Earth Orbit

Inclination

82.8

Latest

Satellite identification and parameters

Extended collection of information and parameters for COSMOS 1275 DEB.

Object identification

Identified? True

Debris? True

Object name: COSMOS 1275 DEB

International designator: 1981-053AU

Object number (NORAD): 12700

Object ID (CCSDS): 12700

Country: COMMONWEALTH OF INDEPENDENT STATES (CIS)

Current information (Y/N): Y

RCS size: SMALL

Orbital parameters

Period: 102.147 minutes

Inclination: 82.7809 deg

SMA: 7238.437 km

Apoapsis: 895.209 km

Periapsis: 825.395 km

RAAN: 195.1138 deg

Eccentricy: 0.0048224

Argument of periapsis: 244.7385 deg

Mean anomaly: 114.8789 deg

Mean motion: 14.09728784 rev/day

Mean motion (dot): 0.00001368 rev/day2

B* drag term: 0.00076272 1/REarth

Two-line elements (TLE)

Creation date: May 7, 2025, 3:14 a.m.

Reference frame: TEME

Reference center: EARTH

Epoch: May 6, 2025, 2:36 p.m. UTC

TLE line 0: 0 COSMOS 1275 DEB

TLE line 1: 1 12700U 81053AU 25126.60900834 .00001368 00000-0 76272-3 0 9998

TLE line 2: 2 12700 82.7809 195.1138 0048224 244.7385 114.8789 14.09728784229862

Live tracking on map

Real-time ground track for satellite COSMOS 1275 DEB.

In-orbit conjunctions

A list of the most updated potential collisions computed for object COSMOS 1275 DEB.

Target Orbit TCA Probability of collision Miss distance Type
NOAA 16 DEB SSO 2025-03-30 02:46:33 0.0001623028 121.0 (m) DEBRIS
FENGYUN 1C DEB SSO 2024-12-04 07:18:06 0.0001068453 138.0 (m) DEBRIS

Associated space launch

Navigation satellite providing location information for the Tsiklon-B navigation system

COSMOS 1275 DEB was lifted into orbit during the mission ‘Kosmos-3M | Parus 27’, on board a Kosmos-3M space rocket.

The launch took place on June 4, 1981, 3:41 p.m. from 132/2.

For more information about the launch, click the button.

Launch to space Kosmos-3M | Parus 27
Kosmos-3M | Parus 27

Agency: N/A

Status: Launch Successful

Launch date: June 4, 1981, 3:41 p.m. UTC

Rocket: Kosmos-3M

Launch pad: 132/2

Location: Plesetsk Cosmodrome, Russian Federation

...

Latest news about this satellite

There are no fresh news available about this satellite. Check back as we update our databases every day.


Newsletter sign-up

Weekly statistics, charts and insights to help you stay on top of the space industry.